[[{"header":{"parameterUnit":"m.s-1","parameterCategory":1,"la1":30.2991,"la2":30.254,"lo1":-89.0895,"lo2":-89.0444,"dy":0.0017,"dx":0.0017,"nx":28,"ny":28,"refTime":"2024-05-03T21:00:00:Z","depth":0,"parameterNumber":2,"parameterNumberName":"U-component_of_WINDS"},"data":[0,0,0,0,0,0,0,0,0,0,0,0,0,0,0,0,0,0,0,0,0,0,0,0,0,0,0,0,0,0,0,0,0,0,0,0,0,0,0,0,0,0,0,0,0,0,0,0,0,0,0,0,0,0,0,0,0,0,-1.0906,-1.0906,0,-1.0883,-1.0883,-1.0883,-1.0843,-1.0842,-1.0842,-1.0841,-1.0818,-1.0818,-1.0818,0,0,0,0,0,0,0,0,0,0,0,0,0,-1.0916,-1.0916,-1.0906,-1.0906,-1.0905,-1.0883,-1.0883,-1.0883,-1.0843,-1.0842,-1.0841,-1.0841,-1.0818,-1.0818,-1.0818,0,0,0,0,0,0,0,0,0,0,0,0,0,-1.0904,-1.0916,-1.0906,-1.0883,-1.0881,-1.0883,-1.0883,-1.0883,-1.0843,-1.0842,-1.0841,-1.084,-1.0818,-1.0818,-1.0818,-1.0842,0,0,-1.0819,-1.0819,0,0,0,0,0,0,0,0,-1.0905,-1.0904,-1.0887,-1.0885,-1.0882,-1.0865,-1.0878,-1.0869,-1.0844,-1.0858,-1.0841,-1.084,-1.0835,-1.0833,-1.0832,-1.0841,-1.084,-1.0819,-1.0819,-1.0819,-1.0819,0,0,0,0,0,0,0,-1.0906,-1.0905,-1.0897,-1.0886,-1.0884,-1.0874,-1.0871,-1.0876,-1.0853,-1.0856,-1.0853,-1.0851,-1.0833,-1.0832,-1.0831,-1.0839,-1.0819,-1.0819,-1.0819,-1.0819,-1.0867,-1.0868,0,0,0,0,0,0,-1.091,-1.0906,-1.0898,-1.0896,-1.0891,-1.0875,-1.0872,-1.0871,-1.0853,-1.0849,-1.0852,-1.085,-1.0832,-1.0831,-1.083,-1.0856,-1.0819,-1.0819,-1.0819,-1.0866,-1.0867,-1.0869,0,0,0,0,0,0,-1.091,-1.091,-1.0898,-1.09,-1.0898,-1.0876,-1.0876,-1.0872,-1.087,-1.0849,-1.0845,-1.0855,-1.0831,-1.083,-1.0839,-1.0855,-1.0819,-1.0819,-1.0865,-1.0866,-1.0868,-1.0908,0,0,0,0,0,0,-1.0911,-1.091,-1.0918,-1.0901,-1.0898,-1.0908,-1.0877,-1.0872,-1.087,-1.0866,-1.0851,-1.0847,-1.083,-1.0839,-1.0839,-1.0854,-1.0819,-1.0863,-1.0865,-1.0867,-1.0906,-1.0911,-1.0916,0,0,0,0,0,-1.0911,-1.093,-1.0919,-1.0918,-1.0908,-1.0909,-1.0907,-1.0887,-1.0872,-1.088,-1.0867,-1.0848,-1.0853,-1.0841,-1.084,-1.0855,-1.0862,-1.0865,-1.0867,-1.0903,-1.091,-1.0916,0,0,0,0,0,0,-1.095,-1.0928,-1.0915,-1.0928,-1.0921,-1.0902,-1.0912,-1.0895,-1.0892,-1.0889,-1.0864,-1.0861,-1.0874,-1.0866,-1.0852,-1.0877,-1.0855,-1.0857,-1.0882,-1.0888,-1.0894,-1.0895,-1.082,0,0,0,0,0,-1.096,-1.0963,-1.0943,-1.0957,-1.0954,-1.0934,-1.0934,-1.0919,-1.091,-1.0907,-1.0894,-1.0887,-1.0887,-1.0887,-1.0886,-1.0905,-1.0901,-1.0915,-1.092,-1.0925,-1.0927,-1.0937,-1.0943,-1.0878,-1.0877,-1.0877,0,0,-1.0981,-1.0969,-1.0972,-1.0965,-1.0957,-1.0961,-1.0931,-1.0936,-1.0938,-1.0907,-1.0915,-1.0907,-1.0897,-1.0911,-1.0916,-1.0904,-1.0945,-1.0928,-1.0932,-1.0932,-1.094,-1.0947,-1.0952,-1.0879,-1.0879,-1.0879,0,0,-1.1021,-1.1012,-1.1023,-1.1017,-1.1006,-1.0992,-1.0995,-1.0979,-1.0972,-1.098,-1.0957,-1.096,-1.096,-1.0954,-1.0951,-1.0991,-1.0973,-1.0991,-1.1019,-1.1028,-1.1034,-1.1038,-1.1052,-1.1057,-1.0994,-1.0994,-1.0994,0,-1.1048,-1.1052,-1.1031,-1.1037,-1.1035,-1.1008,-1.1019,-1.1013,-1.1003,-1.1002,-1.0989,-1.099,-1.0981,-1.0994,-1.1003,-1.1002,-1.1005,-1.0992,-1.1035,-1.1039,-1.1043,-1.1056,-1.1061,-1.0996,-1.0996,-1.0996,-1.0996,0,-1.1086,-1.109,-1.11,-1.109,-1.1089,-1.1098,-1.1079,-1.108,-1.1067,-1.1055,-1.1064,-1.1053,-1.1049,-1.1051,-1.1038,-1.1062,-1.1055,-1.1039,-1.1015,-1.1052,-1.1063,-1.1068,-1.0999,-1.0999,-1.0998,-1.0997,0,0,-1.1148,-1.1128,-1.1132,-1.1128,-1.1115,-1.1117,-1.1125,-1.1122,-1.1123,-1.1118,-1.1124,-1.1126,-1.1111,-1.1108,-1.1093,-1.1102,-1.1134,-1.1084,-1.1084,-1.1094,-1.1161,-1.1173,-1.1179,-1.1123,-1.1124,-1.1124,-1.1162,0,-1.1185,-1.1197,-1.1179,-1.1195,-1.1198,-1.1173,-1.118,-1.1173,-1.1163,-1.1164,-1.1153,-1.1155,-1.1135,-1.1133,-1.114,-1.1129,-1.1147,-1.1126,-1.1128,-1.1129,-1.1131,-1.1185,-1.1198,-1.1234,-1.1166,-1.1167,-1.1168,0,-1.1228,-1.1225,-1.1242,-1.1228,-1.1229,-1.1235,-1.1231,-1.1233,-1.1225,-1.1217,-1.1214,-1.1197,-1.1205,-1.1183,-1.1194,-1.1179,-1.118,-1.1175,-1.1175,-1.1174,-1.115,-1.1185,-1.1245,-1.125,-1.1175,-1.1174,-1.1174,0,-1.1272,-1.1271,-1.1281,-1.1278,-1.1263,-1.1268,-1.1262,-1.1253,-1.1253,-1.1249,-1.1249,-1.1247,-1.1246,-1.1245,-1.1228,-1.1214,-1.1241,-1.1218,-1.1235,-1.1235,-1.124,-1.124,-1.13,-1.1242,-1.1242,-1.1242,-1.1242,0,-1.1314,-1.1325,-1.1301,-1.1307,-1.1319,-1.1298,-1.1311,-1.1303,-1.1295,-1.1299,-1.1278,-1.1283,-1.1261,-1.1264,-1.1251,-1.1262,-1.1261,-1.1255,-1.1252,-1.1257,-1.1258,-1.1256,-1.1253,-1.1243,-1.1243,-1.1243,-1.1242,0,-1.1364,-1.1348,-1.1357,-1.1342,-1.1339,-1.1348,-1.1335,-1.1341,-1.133,-1.1336,-1.1336,-1.1319,-1.1321,-1.1305,-1.1304,-1.1295,-1.1312,-1.1304,-1.1315,-1.1312,-1.133,-1.1328,-1.139,-1.1397,-1.1335,-1.1336,-1.1336,0,-1.1391,-1.1399,-1.1385,-1.1387,-1.1382,-1.1384,-1.1384,-1.1365,-1.1365,-1.1357,-1.1364,-1.1364,-1.1363,-1.1368,-1.1356,-1.1355,-1.1347,-1.1369,-1.1347,-1.1352,-1.1347,-1.1347,-1.1348,-1.1373,-1.1374,-1.1375,-1.1375,0,-1.1441,-1.1434,-1.1433,-1.1431,-1.1431,-1.1429,-1.1424,-1.1427,-1.1407,-1.1408,-1.141,-1.141,-1.1409,-1.141,-1.1407,-1.1402,-1.1385,-1.1383,-1.1387,-1.1391,-1.1397,-1.1394,-1.1327,-1.1381,-1.138,-1.138,-1.138,-1.138,-1.1481,-1.1487,-1.1478,-1.1479,-1.1474,-1.1471,-1.1476,-1.1466,-1.1467,-1.1465,-1.1454,-1.1458,-1.1451,-1.1445,-1.1441,-1.1445,-1.1434,-1.144,-1.1441,-1.1443,-1.1446,-1.1397,-1.1444,-1.1444,-1.1444,-1.1444,-1.1444,0,-1.153,-1.1523,-1.1524,-1.1519,-1.1521,-1.1506,-1.1501,-1.1503,-1.1507,-1.1501,-1.1501,-1.1504,-1.1505,-1.1494,-1.1493,-1.1498,-1.1491,-1.1499,-1.1498,-1.1497,-1.1455,-1.1452,-1.1505,-1.1505,-1.1505,-1.1505,-1.1505,-1.1505,-1.1555,-1.1565,-1.1556,-1.1564,-1.1557,-1.1561,-1.156,-1.1557,-1.1553,-1.1557,-1.1558,-1.155,-1.1543,-1.1542,-1.1543,-1.1539,-1.154,-1.155,-1.1545,-1.1506,-1.15,-1.1494,-1.1491,-1.1551,-1.1551,-1.1586,-1.1586,-1.1586]},{"header":{"parameterUnit":"m.s-1","parameterCategory":1,"la1":30.2991,"la2":30.254,"lo1":-89.0895,"lo2":-89.0444,"dy":0.0017,"dx":0.0017,"nx":28,"ny":28,"refTime":"2024-05-03T21:00:00:Z","depth":0,"parameterNumber":3,"parameterNumberName":"V-component_of_WINDS"},"data":[0,0,0,0,0,0,0,0,0,0,0,0,0,0,0,0,0,0,0,0,0,0,0,0,0,0,0,0,0,0,0,0,0,0,0,0,0,0,0,0,0,0,0,0,0,0,0,0,0,0,0,0,0,0,0,0,0,0,2.372,2.3721,0,2.3791,2.3792,2.3793,2.3802,2.3801,2.38,2.38,2.3869,2.3871,2.3874,0,0,0,0,0,0,0,0,0,0,0,0,0,2.3589,2.3591,2.372,2.3721,2.3722,2.3791,2.3792,2.3793,2.3802,2.3801,2.38,2.38,2.3868,2.3871,2.3874,0,0,0,0,0,0,0,0,0,0,0,0,0,2.3651,2.3592,2.372,2.3735,2.3737,2.3791,2.3792,2.3793,2.3802,2.3801,2.38,2.3799,2.3867,2.3871,2.3874,2.3917,0,0,2.3885,2.3887,0,0,0,0,0,0,0,0,2.3648,2.3656,2.3732,2.3734,2.3736,2.3787,2.3771,2.3834,2.3802,2.3777,2.38,2.3799,2.3842,2.3848,2.3863,2.392,2.3923,2.3886,2.3888,2.389,2.3891,0,0,0,0,0,0,0,2.3643,2.3653,2.3748,2.3733,2.3736,2.3737,2.3745,2.3783,2.3814,2.3779,2.378,2.3789,2.3843,2.3859,2.3865,2.3924,2.3886,2.3889,2.3891,2.3893,2.4019,2.402,0,0,0,0,0,0,2.3637,2.3649,2.3746,2.375,2.3689,2.374,2.3749,2.3771,2.3814,2.3819,2.3789,2.3789,2.3854,2.386,2.3867,2.3919,2.389,2.3893,2.3895,2.4018,2.4019,2.402,0,0,0,0,0,0,2.3634,2.3645,2.3743,2.37,2.3713,2.3743,2.3769,2.3773,2.379,2.3822,2.3827,2.3801,2.3853,2.3862,2.3905,2.3922,2.3895,2.3898,2.4016,2.4018,2.402,2.4024,0,0,0,0,0,0,2.363,2.3644,2.3662,2.3701,2.3715,2.378,2.377,2.3775,2.3797,2.3796,2.3834,2.3839,2.3853,2.3899,2.3908,2.3926,2.3901,2.4015,2.4017,2.4019,2.4023,2.4026,2.4029,0,0,0,0,0,2.3626,2.366,2.3663,2.3674,2.3738,2.3781,2.3789,2.3806,2.3798,2.3815,2.3835,2.3838,2.3919,2.3903,2.3914,2.3933,2.4014,2.4016,2.4019,2.4021,2.4025,2.4029,0,0,0,0,0,0,2.3621,2.3665,2.3669,2.3717,2.3745,2.3783,2.3805,2.381,2.3841,2.3839,2.3858,2.3866,2.3907,2.3925,2.3907,2.3976,2.3965,2.397,2.3963,2.3968,2.397,2.3965,2.3904,0,0,0,0,0,2.3626,2.3659,2.3695,2.3734,2.3748,2.3774,2.3794,2.3804,2.3834,2.3846,2.3869,2.3897,2.3929,2.3949,2.398,2.4025,2.4033,2.4044,2.4047,2.4049,2.4053,2.4077,2.4082,2.4029,2.4029,2.4028,0,0,2.3636,2.3664,2.3684,2.3734,2.3757,2.379,2.3784,2.3819,2.3843,2.3851,2.3893,2.3911,2.3943,2.3987,2.4007,2.4002,2.4069,2.4052,2.4054,2.4056,2.408,2.4085,2.4089,2.403,2.403,2.403,0,0,2.3671,2.3696,2.373,2.3754,2.379,2.3807,2.3815,2.3852,2.3864,2.3907,2.3913,2.3941,2.3996,2.4018,2.4037,2.408,2.4082,2.4089,2.4104,2.4128,2.4132,2.4136,2.415,2.4155,2.4093,2.4093,2.4093,0,2.3678,2.3729,2.3747,2.3782,2.3803,2.3813,2.3848,2.3869,2.3913,2.3927,2.3921,2.3989,2.4012,2.406,2.4071,2.4086,2.4095,2.4085,2.413,2.4134,2.4138,2.4151,2.4157,2.4093,2.4093,2.4093,2.4093,0,2.3735,2.377,2.3794,2.3837,2.3861,2.3895,2.3918,2.3939,2.3948,2.3965,2.4007,2.4034,2.4071,2.4083,2.4091,2.4133,2.4129,2.4126,2.4115,2.4143,2.4156,2.4162,2.4094,2.4094,2.4094,2.4093,0,0,2.3769,2.3822,2.383,2.3849,2.3889,2.3916,2.395,2.3987,2.4005,2.4034,2.4062,2.4108,2.4106,2.4127,2.4138,2.4158,2.4189,2.4153,2.4154,2.4158,2.4235,2.4236,2.4242,2.4192,2.4193,2.4194,2.4232,0,2.3808,2.387,2.3888,2.394,2.3972,2.3981,2.4011,2.4038,2.4055,2.4083,2.4101,2.4133,2.4128,2.4141,2.4162,2.4181,2.4205,2.4179,2.4217,2.4218,2.4208,2.4249,2.4251,2.4286,2.4238,2.4239,2.4239,0,2.3861,2.3893,2.3948,2.3984,2.3998,2.4024,2.4058,2.4086,2.4116,2.4127,2.415,2.4159,2.4194,2.4181,2.4229,2.421,2.4227,2.4239,2.424,2.4244,2.423,2.4253,2.4298,2.4303,2.4248,2.4247,2.4247,0,2.3879,2.3935,2.3976,2.3992,2.4034,2.4053,2.4071,2.41,2.4121,2.4151,2.4164,2.4197,2.4215,2.424,2.4257,2.4246,2.4302,2.4291,2.4311,2.431,2.4321,2.432,2.4368,2.4333,2.4333,2.4333,2.4333,0,2.392,2.3953,2.3984,2.4009,2.4046,2.4066,2.4101,2.412,2.4146,2.4173,2.4184,2.4209,2.423,2.4258,2.4271,2.4308,2.4316,2.4325,2.4328,2.4323,2.4322,2.4334,2.4331,2.4335,2.4334,2.4334,2.4334,0,2.3946,2.3968,2.4013,2.405,2.4059,2.4085,2.4116,2.414,2.4157,2.4191,2.42,2.4227,2.426,2.428,2.4322,2.4331,2.4371,2.4373,2.4361,2.4362,2.438,2.4377,2.4437,2.4445,2.4405,2.4405,2.4405,0,2.397,2.3996,2.4036,2.4056,2.4074,2.4106,2.4127,2.4147,2.4168,2.4205,2.4223,2.4258,2.4286,2.4338,2.436,2.4392,2.4395,2.4413,2.4399,2.4394,2.4394,2.4392,2.4394,2.4415,2.4416,2.4416,2.4416,0,2.4011,2.402,2.4051,2.4086,2.4111,2.4139,2.4167,2.4182,2.4206,2.4229,2.4264,2.4286,2.4329,2.4362,2.4396,2.4413,2.4418,2.442,2.4426,2.4422,2.4413,2.4417,2.4366,2.4419,2.4418,2.4418,2.4418,2.4418,2.4036,2.4059,2.4091,2.4125,2.4148,2.4173,2.4197,2.4217,2.4247,2.4284,2.4294,2.433,2.4358,2.4404,2.4422,2.445,2.4447,2.4456,2.4458,2.4459,2.4459,2.441,2.4456,2.4456,2.4456,2.4456,2.4456,0,2.4077,2.4097,2.4128,2.4167,2.4193,2.4197,2.4227,2.4249,2.4281,2.4307,2.4335,2.4374,2.4407,2.4431,2.4464,2.4481,2.4484,2.4489,2.4488,2.4491,2.4461,2.4452,2.4486,2.4486,2.4486,2.4486,2.4486,2.4486,2.4101,2.414,2.4153,2.4203,2.4224,2.426,2.4277,2.43,2.4321,2.4365,2.4392,2.4408,2.4434,2.4469,2.4498,2.4504,2.4515,2.452,2.4526,2.4497,2.4494,2.449,2.4482,2.4522,2.4522,2.4554,2.4554,2.4555]}]]